This demonstration page uses our WeatherBlox Daily Observations layout. Learn more.

Left ArrowRight Arrow

Hourly Observations for April 6, 2022

Temp ( °F °C ) Dew Point ( °F °C ) Humidity (%) Winds ( mph kmh ) Pressure ( in mb ) Visibility ( mi km ) Precip ( " mm )
12:56 am 00:56 Clear 39 3.9 21 -6.1 48 48 WSW 7 11 29.75 1007 10 16 0.00 0.00
1:56 am 01:56 Clear 39 3.9 21 -6.1 48 48 WSW 10 17 29.74 1007 10 16 0.00 0.00
2:56 am 02:56 Clear 37 2.8 21 -6.1 52 52 WSW 14 22 29.73 1007 10 16 0.00 0.00
3:56 am 03:56 Clear 40 4.4 17 -8.3 40 40 W 17 28 29.73 1007 10 16 0.00 0.00
4:56 am 04:56 Clear 40 4.4 16 -8.9 38 38 W 16 26 29.72 1007 10 16 0.00 0.00
5:56 am 05:56 Clear 42 5.6 14 -10 32 32 W 18 30 29.72 1007 10 16 0.00 0.00
6:56 am 06:56 Clear 41 5 13 -10.6 32 32 W 17 28 29.74 1007 10 16 0.00 0.00
7:56 am 07:56 Sunny 41 5 13 -10.6 32 32 W 21 33 29.76 1008 10 16 0.00 0.00
8:56 am 08:56 Sunny 46 7.8 14 -10 27 27 WNW 26 43 29.76 1008 10 16 0.00 0.00
9:56 am 09:56 Mostly Cloudy 49 9.4 15 -9.4 26 26 NW 33 54 29.76 1008 10 16 0.00 0.00
10:56 am 10:56 Cloudy 49 9.4 18 -7.8 29 29 NW 28 44 29.80 1009 10 16 0.00 0.00
11:56 am 11:56 Cloudy 51 10.6 19 -7.2 28 28 WNW 36 57 29.80 1009 10 16 0.00 0.00
12:56 pm 12:56 Cloudy 48 8.9 25 -3.9 41 41 NW 26 43 29.84 1011 10 16 0.00 0.00
1:56 pm 13:56 Cloudy 46 7.8 30 -1.1 54 54 NNW 30 48 29.86 1011 10 16 0.00 0.00
2:56 pm 14:56 Mostly Cloudy 48 8.9 27 -2.8 44 44 NNW 33 54 29.90 1012 10 16 0.00 0.00
3:56 pm 15:56 Mostly Cloudy 45 7.2 26 -3.3 48 48 NNW 29 46 29.94 1014 10 16 0.00 0.00
4:56 pm 16:56 Cloudy 46 7.8 24 -4.4 42 42 NW 26 43 29.96 1015 10 16 0.00 0.00
5:56 pm 17:56 Cloudy 48 8.9 23 -5 37 37 NNW 29 46 29.97 1015 10 16 0.00 0.00
6:56 pm 18:56 Mostly Cloudy 48 8.9 23 -5 37 37 NNW 28 44 29.99 1016 10 16 0.00 0.00
7:56 pm 19:56 Cloudy 47 8.3 25 -3.9 42 42 NW 23 37 30.01 1016 10 16 0.00 0.00
8:56 pm 20:56 Cloudy 46 7.8 27 -2.8 47 47 NW 16 26 30.03 1017 10 16 0.00 0.00
9:56 pm 21:56 Mostly Cloudy 44 6.7 29 -1.7 55 55 NW 22 35 30.03 1017 10 16 0.00 0.00
10:56 pm 22:56 Cloudy 45 7.2 29 -1.7 54 54 NW 21 33 30.02 1017 10 16 0.00 0.00
11:56 pm 23:56 Cloudy 44 6.7 28 -2.2 53 53 NW 20 31 30.02 1017 10 16 0.00 0.00

Powered by AerisWeather